This is the latest recevied weather packets stored in our database for station/object W4DHW-4. If no packets are shown the sender has not sent any weather packets the latest 1 day(s).
| Time | Temp. | Humidity | Pressure | Rain* | Wind** | Luminosity | Snow |
|---|---|---|---|---|---|---|---|
| 1777993009 | 23.33° C | 45% | 1015 hPa | 0 mm | 0.45 m/s, 168° | 768 W/m² | - |
| 1777992708 | 22.78° C | 44% | 1014.8 hPa | 0 mm | 0.89 m/s, 289° | 710 W/m² | - |
| 1777992405 | 22.78° C | 45% | 1014.9 hPa | 0 mm | 1.34 m/s, 292° | 661 W/m² | - |
| 1777992103 | 22.78° C | 48% | 1015.1 hPa | 0 mm | 1.79 m/s, 262° | 743 W/m² | - |
| 1777991800 | 22.78° C | 47% | 1015.2 hPa | 0 mm | 3.13 m/s, 237° | 784 W/m² | - |
| 1777991497 | 22.22° C | 50% | 1015.1 hPa | 0 mm | 2.24 m/s, 271° | 767 W/m² | - |
| 1777991194 | 22.22° C | 49% | 1015.2 hPa | 0 mm | 4.02 m/s, 176° | 741 W/m² | - |
| 1777990891 | 21.67° C | 51% | 1015.3 hPa | 0 mm | 1.34 m/s, 170° | 768 W/m² | - |
| 1777990589 | 21.67° C | 52% | 1015 hPa | 0 mm | 3.13 m/s, 211° | 752 W/m² | - |
| 1777990285 | 21.11° C | 54% | 1015 hPa | 0 mm | 3.58 m/s, 182° | 737 W/m² | - |
| 1777989982 | 20.56° C | 55% | 1015.1 hPa | 0 mm | 1.79 m/s, 187° | 719 W/m² | - |
| 1777989679 | 20.56° C | 56% | 1015.4 hPa | 0 mm | 1.79 m/s, 163° | 700 W/m² | - |
| 1777989375 | 20° C | 55% | 1015.2 hPa | 0 mm | 2.68 m/s, 152° | 651 W/m² | - |
| 1777989072 | 20° C | 57% | 1015.2 hPa | 0 mm | 1.79 m/s, 142° | 632 W/m² | - |
| 1777988767 | 20° C | 58% | 1015.5 hPa | 0 mm | 0.45 m/s, 151° | 647 W/m² | - |
| 1777988465 | 19.44° C | 60% | 1015.1 hPa | 0 mm | 2.68 m/s, 150° | 467 W/m² | - |
| 1777988162 | 19.44° C | 61% | 1015.2 hPa | 0 mm | 0.89 m/s, 209° | 235 W/m² | - |
| 1777987858 | 18.33° C | 61% | 1015.3 hPa | 0 mm | 1.34 m/s, 125° | 541 W/m² | - |
| 1777987554 | 18.33° C | 63% | 1015.2 hPa | 0 mm | 0.45 m/s, 220° | 502 W/m² | - |
| 1777987252 | 18.89° C | 64% | 1015.2 hPa | 0 mm | 0.45 m/s, 148° | 475 W/m² | - |
| 1777986948 | 17.78° C | 66% | 1015.1 hPa | 0 mm | 0.45 m/s, 317° | 460 W/m² | - |
| 1777986647 | 17.78° C | 68% | 1015.1 hPa | 0 mm | 0.89 m/s, 132° | 434 W/m² | - |
| 1777986344 | 17.22° C | 70% | 1015.1 hPa | 0 mm | 0.89 m/s, 69° | 402 W/m² | - |
| 1777986043 | 16.67° C | 71% | 1015.2 hPa | 0 mm | 1.34 m/s, 173° | 370 W/m² | - |
| 1777985739 | 15.56° C | 75% | 1015.1 hPa | 0 mm | 0.45 m/s, 249° | 350 W/m² | - |
* Rain latest hour (hover to see other rain measurements)
** Current wind speed in m/s (hover to see current wind gust speed)